sat.trackr.live / text

‹ back to catalog

STARLINK-36783

NORAD 67873 · 2026-034Z

PAYLOAD ACTIVE UNKNOWN

§ Identity

Operator
Country
US
Launch date
2026-02-20
Launch site
AFETR
Launch vehicle
Mass (kg)
RCS (m²)

Purposes: comms

External: N2YO · Heavens-Above · Gunter

§ Orbital elements

Epoch: 2026-05-25T04:34:09.510240Z

Period
93.85 min
Inclination
53.1584°
Eccentricity
0.0000997
Mean motion
15.34412105 rev/d
Perigee alt
462.0 km
Apogee alt
463.3 km
Semi-major
6,840.8 km
B*
4.9341e-4
RAAN
207.1029°
Arg perigee
71.9629°
Mean anomaly
288.1482°
Rev number
1,577

§ Raw data

STARLINK-367831 67873U 26034Z   26145.19038785  .00016337  00000+0  49341-3 0  99982 67873  53.1584 207.1029 0000997  71.9629 288.1482 15.34412105 15778

JSON: /api/v1/satellites/67873 · /tle

For live sub-satellite position, see the globe view (requires WebGL).

§ Visibility from observer

Set your observer location to see the next 7 days of passes ≥ 10°. The values pass through the URL so the page stays shareable.

No JS? Fill the form by hand. The geolocation button needs JavaScript.